Terminal Aerodrome Forecast
Issued by NWS

Home | Current Version | Previous Version | Graphics & Text | Print | Product List | Glossary On
Versions: 1 2 3 4 5 6 7 8 9 10 11 12 13 14 15 16 17 18
457
FTUS43 KBIS 031355 AAA
TAFDIK
TAF AMD
KDIK 031355Z 0314/0412 27008KT P6SM OVC012
      TEMPO 0314/0316 OVC008
     FM031800 30015KT P6SM OVC030
     FM032100 29011KT P6SM BKN060=

USA.gov is the U.S. government's official web portal to all federal, state and local government web resources and services.